Preview of NWS' New Version of Forecast
This preview is not operational and should not be used for support decisions.

Regional Weather Roundup (RWR)

Issued by National Weather Service (NWS)

                            
000
ASUS45 KBOI 221910
RWRID 

IDAHO REGIONAL WEATHER ROUNDUP
NATIONAL WEATHER SERVICE BOISE ID
100 PM MDT SUN SEP 22 2019

NOTE: "FAIR" INDICATES FEW OR NO CLOUDS BELOW 12000 FEET
WITH NO SIGNIFICANT WEATHER AND/OR OBSTRUCTIONS TO VISIBILITY

IDZ012-014-222000-
SOUTHWEST IDAHO

  
CITY           SKY/WX    TMP DP  RH WIND       PRES   REMARKS
BOISE          SUNNY     73  39  29 SE10G20   29.99F                  
CALDWELL       SUNNY     72  42  34 SE15      29.98F                  
MOUNTAIN HOME  SUNNY     71  38  30 SE14      30.00F                  
$$

IDZ016-017-222000-
SOUTHCENTRAL IDAHO

  
CITY           SKY/WX    TMP DP  RH WIND       PRES   REMARKS
BURLEY         SUNNY     69  35  28 SW8       30.06F                  
JEROME         SUNNY     70  38  31 CALM      30.07F                  
TWIN FALLS     SUNNY     71  33  24 S13G20    30.06F                  
$$

IDZ019>023-222000-
SOUTHEAST IDAHO

  
CITY           SKY/WX    TMP DP  RH WIND       PRES   REMARKS
IDAHO FALLS    SUNNY     62  38  40 SW12      30.15F                  
POCATELLO      MOSUNNY   66  34  30 W3        30.12F                  
REXBURG        SUNNY     59  40  49 SW6       30.15F                  
$$

IDZ006-010-011-018-031-032-222000-
CENTRAL IDAHO MOUNTAINS

  
CITY           SKY/WX    TMP DP  RH WIND       PRES   REMARKS
MCCALL         MOSUNNY   60  38  43 S10       30.04F                  
HAILEY         SUNNY     61  41  48 E7        30.13F                  
STANLEY          N/A     59  37  44 N6        30.10F                  
SALMON         SUNNY     64  43  46 N8        30.03F                  
CHALLIS        SUNNY     61  37  41 N5        30.06F                  
$$

IDZ002-004-006-007-026-222000-
NORTHERN IDAHO

  
CITY           SKY/WX    TMP DP  RH WIND       PRES   REMARKS
LEWISTON       CLOUDY    74  47  38 N9        29.87F                  
LOWELL           N/A     69  49  48 VRB3      29.91F                  
COEUR D'ALENE  MOSUNNY   66  47  50 S8        29.91F                  
MULLAN PASS    SUNNY     56  41  57 VRB3      30.03F                  
$$